This is the latest recevied weather packets stored in our database for station/object N4NVD-13. If no packets are shown the sender has not sent any weather packets the latest 10 day(s).
| Time | Temp. | Humidity | Pressure | Rain* | Wind** | Luminosity | Snow |
|---|---|---|---|---|---|---|---|
| 1777688205 | 11.67° C | 99% | 1015.6 hPa | 0 mm | - | 0 W/m² | - |
| 1777687902 | 11.67° C | 99% | 1015.4 hPa | 0 mm | - | 0 W/m² | - |
| 1777687599 | 11.67° C | 99% | 1015.3 hPa | 0 mm | - | 0 W/m² | - |
| 1777687295 | 11.67° C | 99% | 1015.1 hPa | 0 mm | - | 0 W/m² | - |
| 1777686994 | 11.67° C | 99% | 1015.2 hPa | 0 mm | - | 0 W/m² | - |
| 1777686689 | 11.67° C | 99% | 1015 hPa | 0 mm | - | 0 W/m² | - |
| 1777686387 | 12.22° C | 99% | 1014.8 hPa | 0 mm | - | 0 W/m² | - |
| 1777686084 | 12.22° C | 99% | 1014.6 hPa | 0 mm | - | 0 W/m² | - |
| 1777685780 | 12.22° C | 99% | 1014.6 hPa | 0 mm | - | 0 W/m² | - |
| 1777685476 | 12.22° C | 99% | 1014.5 hPa | 0 mm | - | 0 W/m² | - |
| 1777685173 | 12.22° C | 99% | 1014.3 hPa | 0 mm | - | 0 W/m² | - |
| 1777684871 | 12.22° C | 99% | 1014.1 hPa | 0 mm | - | 0 W/m² | - |
| 1777684568 | 12.22° C | 99% | 1013.8 hPa | 0 mm | - | 0 W/m² | - |
| 1777684263 | 12.22° C | 99% | 1013.8 hPa | 0 mm | - | 0 W/m² | - |
| 1777683961 | 12.22° C | 99% | 1013.8 hPa | 0 mm | - | 0 W/m² | - |
| 1777683657 | 12.22° C | 99% | 1013.8 hPa | 0 mm | - | 0 W/m² | - |
| 1777683355 | 12.22° C | 99% | 1013.7 hPa | 0 mm | - | 0 W/m² | - |
| 1777683053 | 12.22° C | 99% | 1013.9 hPa | 0 mm | - | 1 W/m² | - |
| 1777682748 | 12.22° C | 99% | 1014.3 hPa | 0 mm | - | 5 W/m² | - |
| 1777682445 | 12.22° C | 99% | 1014.3 hPa | 0 mm | - | 9 W/m² | - |
| 1777682143 | 12.22° C | 99% | 1014.2 hPa | 0 mm | - | 10 W/m² | - |
| 1777681840 | 12.22° C | 99% | 1014.1 hPa | 0 mm | - | 13 W/m² | - |
| 1777681536 | 12.22° C | 99% | 1014 hPa | 0 mm | - | 18 W/m² | - |
| 1777681233 | 12.22° C | 99% | 1014.2 hPa | 0 mm | - | 9 W/m² | - |
| 1777680931 | 12.22° C | 99% | 1014.1 hPa | 0 mm | - | 6 W/m² | - |
* Rain latest hour (hover to see other rain measurements)
** Current wind speed in m/s (hover to see current wind gust speed)